Reflectivity
7 -17 -20 -20 -19 -5 -19 -20 -20 -20 -20 -20 -20 -20 -20 -20 -20 -20 3 2 -20 -20
12 -2 -20 -20 -20 -20 -20 -20 -20 -20 -20 -20 -20 -20 -20 -20 -20 -18 -5 -19 -14 -20
-12 -20 -20 -20 -20 -20 -20 -20 -20 -20 -20 -20 -20 5 9 -0 -20 -16 14 8 2 -4
10 4 -14 -20 -20 -20 -20 -20 -20 -20 -20 -3 17 21 -20 -20 -20 -12 -14 -4 -3 5
-20 -20 -20 -20 -20 -10 -17 -20 -20 -20 19 32 22 -13 -20 -20 -15 -11 -17 -20 -20 -20
-20 -19 -18 -14 -10 -16 -20 -20 -2 -16 31 29 13 -6 -17 -2 -20 -20 -20 -20 -20 -20
-20 -16 -1 -14 -18 -20 -4 -11 20 25 33 29 30 18 -10 -20 -20 -20 -20 -20 -20 -20
-20 -20 -20 -4 11 19 29 34 30 30 30 26 29 6 -20 -18 -19 -20 -20 -20 -20 -20
-20 -20 -20 -20 -6 21 34 37 24 11 23 23 16 16 9 -1 -20 -20 -20 -20 -20 -20
-20 -20 -20 -18 -14 16 27 30 19 22 19 23 21 15 13 11 -20 -20 -20 -20 -20 -20
-20 -20 -17 -15 -14 6 -8 -5 6 20 1 7 21 16 16 2 -20 -20 -20 -20 -20 -20
-19 7 -18 -19 -20 -20 -14 5 13 24 6 18 1 4 6 1 -2 -20 -20 -20 -20 -20
-18 1 8 -15 -4 2 -15 -4 -4 15 -6 17 11 -4 -6 -10 -20 -20 -20 -20 -20 -20
-2 4 6 1 -2 -8 -5 2 -17 -19 -20 -12 4 17 0 -19 -20 -20 -20 -20 -20 -20
Wind_Speed
10 8 9 10 9 6 4 4 4 4 4 4 4 5 6 4 4 6 5 6 5 4
7 7 8 8 7 6 6 5 5 5 4 3 4 5 5 4 5 5 5 5 5 4
7 8 9 10 9 9 7 7 6 5 4 4 4 4 5 4 4 6 4 4 7 5
8 9 9 9 9 9 8 8 7 5 4 4 3 4 5 5 5 8 7 5 7 7
9 8 8 8 8 9 9 7 7 6 5 3 3 4 5 6 6 8 7 5 6 6
7 7 7 7 6 7 9 9 8 6 6 4 4 5 5 8 7 7 6 6 6 6
13 13 10 9 7 8 8 9 8 7 6 3 3 3 5 8 8 8 7 6 7 7
8 8 8 12 11 8 7 5 7 8 8 5 2 2 6 8 8 9 8 7 7 5
9 10 9 9 8 8 7 7 7 8 8 4 1 5 13 11 8 8 8 7 6 5
10 9 8 9 9 9 9 7 9 9 8 5 3 12 15 15 7 7 6 6 5 4
10 10 10 10 9 8 8 9 10 8 7 6 4 10 13 16 9 6 5 5 4 4
12 12 12 11 11 9 10 9 8 9 9 7 6 12 14 12 7 6 5 2 3 4
10 12 12 11 11 9 9 9 9 8 8 10 5 12 14 10 6 7 4 1 1 7
9 10 9 10 7 10 9 9 9 9 8 6 5 7 13 15 5 6 4 3 1 2
Wind_Direction
146 155 157 153 152 145 133 122 133 132 133 135 124 114 105 96 100 93 89 74 69 69
134 135 140 120 125 123 120 129 126 130 126 119 109 105 100 107 103 110 99 92 74 64
112 111 120 130 131 132 131 123 128 133 141 114 103 114 103 93 104 98 81 87 74 57
111 113 115 121 129 138 128 130 128 136 131 90 101 117 107 103 96 89 85 67 79 72
120 120 120 127 132 133 131 126 120 100 80 97 135 130 116 106 103 110 105 93 81 68
114 116 124 125 115 106 106 98 100 123 139 180 130 124 118 113 118 105 95 92 84 80
158 152 141 122 114 115 119 130 146 160 137 102 91 118 133 120 114 104 93 92 84 76
138 135 135 139 136 130 128 137 140 113 89 86 145 110 124 120 122 120 114 101 108 115
137 140 143 138 133 138 142 132 130 122 126 134 111 139 125 121 126 124 119 112 87 72
147 145 149 140 146 160 153 141 124 124 130 125 50 136 133 124 114 105 112 127 134 128
156 151 151 155 158 144 144 138 135 138 129 127 134 142 127 113 98 93 94 113 137 126
162 160 162 167 163 153 141 139 141 140 139 150 142 149 134 118 113 114 117 136 122 117
162 166 170 167 161 155 149 143 141 136 142 163 158 163 154 139 132 126 127 1 24 130
160 164 164 155 152 147 145 142 139 139 148 145 151 187 171 166 147 144 129 140 178 324